Executive Decision — CFK9267 — position and weather

sailwx.info

Track history (hours):
 
Tides and Currents Weather Stations Pressure Air Temp Water Temp Dewpoint Dewpoint Depression Visibility Wind Speed Wind Dir Waves Ship Positions

Executive Decision

Last reported at 2015-Jul-05 07:33 UTC. Time now 2015-Jul-05 07:45 UTC.
Position N 37°47' W 122°23'.

Length 14 m.

Type: Pleasure craft. MMSI: 316015863.

Date/timePositionNaut miles runAvg speedWind from/ knotsBaromVisibWave heightAir tempDewpointWater temp
2015-Jul-05 07:33N 37°47' W 122°23'0 0.0
2015-Jul-05 06:32N 37°47' W 122°23'0 0.0
2015-Jul-05 05:33N 37°47' W 122°23'0 0.0
2015-Jul-05 04:32N 37°47' W 122°23'0 0.0
2015-Jul-05 03:33N 37°47' W 122°23'0 0.0
2015-Jul-05 02:26N 37°47' W 122°23'0 0.0
2015-Jul-05 01:33N 37°47' W 122°23'0 0.0
2015-Jul-05 00:33N 37°47' W 122°23'0 0.0
2015-Jul-04 23:33N 37°47' W 122°23'0 0.0
2015-Jul-04 22:33N 37°47' W 122°23'0 0.0
2015-Jul-04 21:30N 37°47' W 122°23'0 0.0
2015-Jul-04 20:31N 37°47' W 122°23'0 0.0
2015-Jul-04 19:29N 37°47' W 122°23'0 0.0
2015-Jul-04 18:26N 37°47' W 122°23'0 0.0
2015-Jul-04 17:29N 37°47' W 122°23'0 0.0
2015-Jul-04 16:26N 37°47' W 122°23'0 0.0
2015-Jul-04 15:31N 37°47' W 122°23'0 0.0
2015-Jul-04 14:29N 37°47' W 122°23'0 0.0
2015-Jul-04 13:33N 37°47' W 122°23'0 0.0
2015-Jul-04 12:32N 37°47' W 122°23'0 0.0
2015-Jul-04 11:33N 37°47' W 122°23'0 0.0
2015-Jul-04 10:31N 37°47' W 122°23'0 0.0
2015-Jul-04 09:31N 37°47' W 122°23'0 0.0
2015-Jul-04 08:31N 37°47' W 122°23'0 0.0
2015-Jul-04 07:31N 37°47' W 122°23'0 0.0
2015-Jul-04 06:31N 37°47' W 122°23'0 0.0
2015-Jul-04 05:30N 37°47' W 122°23'0 0.0
2015-Jul-02 15:22N 37°47' W 122°23'0 0.0
2015-Jul-02 14:29N 37°47' W 122°23'0 0.0
2015-Jul-02 13:28N 37°47' W 122°23'0 0.0
2015-Jul-02 12:30N 37°47' W 122°23'0 0.0
2015-Jul-02 11:32N 37°47' W 122°23'0 0.0
2015-Jul-02 10:31N 37°47' W 122°23'0 0.0
2015-Jul-02 09:29N 37°47' W 122°23'0 0.0
2015-Jul-02 08:31N 37°47' W 122°23'0 0.0
2015-Jul-02 07:33N 37°47' W 122°23'0 0.0
2015-Jul-02 06:30N 37°47' W 122°23'0 0.0
2015-Jul-02 05:30N 37°47' W 122°23'0 0.0
2015-Jul-02 04:30N 37°47' W 122°23'0 0.0
2015-Jul-01 21:30N 37°47' W 122°23'1 1.3
2015-Jul-01 20:33N 37°48' W 122°24'6 6.1
2015-Jul-01 19:30N 37°48' W 122°32'24 1.2
2015-Jun-30 22:33N 37°60' W 122°58'0 0.0
2015-Jun-30 20:09N 37°60' W 122°58'3 4.6
2015-Jun-30 19:33N 37°59' W 123°02'1111.4
2015-Jun-30 18:33N 38°10' W 123°03'10 0.5
2015-Jun-29 21:32N 38°20' W 123°03'2 2.4
2015-Jun-29 20:33N 38°18' W 123°04'  
Track history (hours):
 
Tides and Currents Weather Stations Pressure Air Temp Water Temp Dewpoint Dewpoint Depression Visibility Wind Speed Wind Dir Waves Ship Positions

Executive Decision

Last reported at 2015-Jul-05 07:33 UTC. Time now 2015-Jul-05 07:45 UTC.
Position N 37°47' W 122°23'.

Length 14 m.

Type: Pleasure craft. MMSI: 316015863.

Date/timePositionNaut miles runAvg speedWind from/ knotsBaromVisibWave heightAir tempDewpointWater temp
2015-Jul-05 07:33N 37°47' W 122°23'0 0.0
2015-Jul-05 06:32N 37°47' W 122°23'0 0.0
2015-Jul-05 05:33N 37°47' W 122°23'0 0.0
2015-Jul-05 04:32N 37°47' W 122°23'0 0.0
2015-Jul-05 03:33N 37°47' W 122°23'0 0.0
2015-Jul-05 02:26N 37°47' W 122°23'0 0.0
2015-Jul-05 01:33N 37°47' W 122°23'0 0.0
2015-Jul-05 00:33N 37°47' W 122°23'0 0.0
2015-Jul-04 23:33N 37°47' W 122°23'0 0.0
2015-Jul-04 22:33N 37°47' W 122°23'0 0.0
2015-Jul-04 21:30N 37°47' W 122°23'0 0.0
2015-Jul-04 20:31N 37°47' W 122°23'0 0.0
2015-Jul-04 19:29N 37°47' W 122°23'0 0.0
2015-Jul-04 18:26N 37°47' W 122°23'0 0.0
2015-Jul-04 17:29N 37°47' W 122°23'0 0.0
2015-Jul-04 16:26N 37°47' W 122°23'0 0.0
2015-Jul-04 15:31N 37°47' W 122°23'0 0.0
2015-Jul-04 14:29N 37°47' W 122°23'0 0.0
2015-Jul-04 13:33N 37°47' W 122°23'0 0.0
2015-Jul-04 12:32N 37°47' W 122°23'0 0.0
2015-Jul-04 11:33N 37°47' W 122°23'0 0.0
2015-Jul-04 10:31N 37°47' W 122°23'0 0.0
2015-Jul-04 09:31N 37°47' W 122°23'0 0.0
2015-Jul-04 08:31N 37°47' W 122°23'0 0.0
2015-Jul-04 07:31N 37°47' W 122°23'0 0.0
2015-Jul-04 06:31N 37°47' W 122°23'0 0.0
2015-Jul-04 05:30N 37°47' W 122°23'0 0.0
2015-Jul-02 15:22N 37°47' W 122°23'0 0.0
2015-Jul-02 14:29N 37°47' W 122°23'0 0.0
2015-Jul-02 13:28N 37°47' W 122°23'0 0.0
2015-Jul-02 12:30N 37°47' W 122°23'0 0.0
2015-Jul-02 11:32N 37°47' W 122°23'0 0.0
2015-Jul-02 10:31N 37°47' W 122°23'0 0.0
2015-Jul-02 09:29N 37°47' W 122°23'0 0.0
2015-Jul-02 08:31N 37°47' W 122°23'0 0.0
2015-Jul-02 07:33N 37°47' W 122°23'0 0.0
2015-Jul-02 06:30N 37°47' W 122°23'0 0.0
2015-Jul-02 05:30N 37°47' W 122°23'0 0.0
2015-Jul-02 04:30N 37°47' W 122°23'0 0.0
2015-Jul-01 21:30N 37°47' W 122°23'1 1.3
2015-Jul-01 20:33N 37°48' W 122°24'6 6.1
2015-Jul-01 19:30N 37°48' W 122°32'24 1.2
2015-Jun-30 22:33N 37°60' W 122°58'0 0.0
2015-Jun-30 20:09N 37°60' W 122°58'3 4.6
2015-Jun-30 19:33N 37°59' W 123°02'1111.4
2015-Jun-30 18:33N 38°10' W 123°03'10 0.5
2015-Jun-29 21:32N 38°20' W 123°03'2 2.4
2015-Jun-29 20:33N 38°18' W 123°04'  

Dump ship's entire track history